Home > Weather > Manama > Past weeks

Flag for Bahrain Weather for the Past 2 Weeks in Manama, Bahrain

Now
66 °F

Sunny.


Feels Like: 66 °F
Forecast: 57 / 66 °F
Wind: 23 mph from Northwest

Location: Bahrain International Airport

Current Time: Feb 9, 2016 at 5:08:29 PM

Latest Report: Feb 9, 2016 at 4:00 PM


Visibility: 10 mi

Pressure: 30.12 "Hg

Humidity: 43%

Dew point: 43 °F

Location of ManamaLocation

Historic Weather in Manama — Graph

°F

Manama Temperature Yesterday

Maximum temperature yesterday: 70 °F (at 12:00 PM)
Minimum temperature yesterday: 63 °F (at 4:00 AM)
Average temperature yesterday: 66 °F

High & Low Weather Summary for the Past Weeks

 TemperatureHumidityPressure
High75 °F (Feb 7, 3:00 PM)100% (Feb 6, 6:00 AM)30.36 "Hg (Feb 6, 6:00 AM)
Low50 °F (Jan 29, 3:00 AM)25% (Feb 7, 2:00 PM)29.92 "Hg (Feb 7, 3:00 PM)
Average62 °F63%30.15 "Hg
* Reported Jan 25 4:00 PM — Feb 9 4:00 PM, Manama, Weather by CustomWeather, © 2016

Note: Actual official high and low records may vary slightly from our data, if they occured in-between our weather recording intervals... More about our weather records

Advertising

Manama Weather History for the Previous 24 Hours

 ConditionsComfort  
Time TempWeatherWind HumidityBarometerVisibility
4:00 PM
Tue, Feb 9
66 °FSunny.23 mph43%30.12 "Hg10 mi
3:00 PM66 °FSunny.22 mph46%30.12 "Hg10 mi
2:00 PM68 °FPassing clouds.24 mph49%30.12 "HgN/A
1:00 PM68 °FPassing clouds.24 mph46%30.12 "HgN/A
12:00 PM68 °FPassing clouds.22 mph46%30.15 "HgN/A
11:00 AM68 °FPassing clouds.22 mph49%30.18 "HgN/A
10:00 AM66 °FPassing clouds.21 mph52%30.21 "HgN/A
9:00 AM66 °FSunny.20 mph52%30.18 "Hg10 mi
8:00 AM64 °FPassing clouds.17 mph68%30.18 "HgN/A
7:00 AM63 °FPassing clouds.16 mph77%30.15 "HgN/A
6:00 AM63 °FClear.17 mph59%30.12 "Hg10 mi
5:00 AM64 °FClear.21 mph52%30.12 "Hg10 mi
4:00 AM64 °FClear.18 mph56%30.12 "Hg10 mi
3:00 AM64 °FClear.17 mph52%30.12 "Hg10 mi
2:00 AM64 °FClear.14 mph60%30.12 "Hg10 mi
1:00 AM64 °FClear.14 mph60%30.12 "Hg10 mi
12:00 AM64 °FClear.14 mph60%30.12 "Hg10 mi
11:00 PM
Mon, Feb 8
64 °FClear.16 mph60%30.12 "Hg10 mi
10:00 PM66 °FClear.15 mph52%30.09 "Hg10 mi
9:00 PM66 °FClear.13 mph60%30.09 "Hg10 mi
8:00 PM66 °FClear.15 mph64%30.07 "Hg10 mi
7:00 PM66 °FClear.14 mph73%30.07 "Hg10 mi
6:00 PM66 °FClear.16 mph78%30.04 "Hg6 mi
5:00 PM68 °FClear.17 mph78%30.04 "Hg6 mi
Weather by CustomWeather, © 2016

See weather overviewHow to use our weather pages